#timestamp,LO_Frequency,Hit,StdDev 
1545908415.2,286047004.4,N
1545908435.1,286047002.6,N
1545908436.0,286047002.6,N
1545908455.8,286047002.6,N
1545908475.7,286047000.2,N
1545908495.5,286047000.1,N
1545908515.3,286046998.8,N
1545908535.2,286046998.1,N
1545908555.0,286046999.9,N
1545908555.9,286046999.9,N
1545908575.7,286047002.4,N
1545908595.6,286047002.2,N
1545908615.4,286047004.4,N
1545908635.3,286047004.1,N
1545908655.1,286047004.2,N
1545908656.0,286047004.2,N
1545908675.8,286047004.2,N
1545908695.7,286047003.4,N
1545908715.5,286047001.5,N
1545908735.4,286047002.3,N
1545908755.2,286046999.8,N
1545908775.0,286047002.6,N
1545908775.9,286047002.6,N
1545908795.8,286047000.6,N
1545908815.6,286047000.4,N
1545908835.4,286047000.8,N
1545908855.3,286046999.9,N
1545908875.1,286047000.2,N
1545908895.9,286046999.7,N
1545908915.7,286047000.1,N
1545908935.5,286047001.5,N
1545908955.4,286047001.9,N
1545908975.2,286047002.1,N
1545908995.0,286047004.2,N
1545908996.0,286047004.2,N
1545909015.8,286047003.2,N
1545909035.6,286047003.2,N
1545909055.5,286047003.7,N
1545909075.3,286047001.6,N
1545909095.1,286047004.0,N
1545909115.9,286047004.1,N
1545909135.7,286047003.5,N
1545909155.6,286047001.5,N
1545909175.4,286047001.3,N
1545909195.2,286047001.9,N
1545909215.1,286047002.2,N
1545909216.0,286047002.2,N
1545909235.8,286047002.3,N
1545909255.6,286047002.4,N
1545909275.5,286046999.7,N
1545909295.3,286047002.0,N
1545909315.2,286047000.3,N
1545909335.9,286047000.4,N
1545909355.7,286047000.0,N
1545909375.6,286046999.9,N
1545909395.4,286047000.0,N
1545909415.2,286046998.2,N
1545909435.1,286047011.9,Y
1545909436.0,286047000.6,P
1545909455.8,286046997.2,P
1545909475.7,286046997.2,N
1545909495.5,286046996.2,N
1545909515.3,286046995.1,N
1545909535.2,286046996.2,N
1545909555.0,286046994.0,N
1545909555.9,286046994.0,N
1545909575.8,286046996.4,N
1545909595.6,286046993.4,N
1545909615.4,286046993.7,N
1545909635.3,286046995.5,N
1545909655.1,286046995.6,N
1545909675.9,286046995.8,N
1545909695.7,286046995.7,N
1545909715.5,286046995.5,N
1545909735.4,286046995.8,N
1545909755.2,286046995.8,N
1545909775.0,286046995.2,N
1545909775.9,286046995.2,N
1545909795.8,286046995.2,N
1545909815.6,286046997.9,N
1545909835.5,286046997.4,N
1545909855.3,286046996.8,N
1545909875.1,286046997.3,N
1545909895.9,286046997.7,N
1545909945.7,286046994.9,E
1545909955.7,286046999.4,N
1545909975.5,286047003.2,P
1545909995.3,286047003.9,N
1545910015.2,286047001.8,N
1545910035.0,286047001.5,N
1545910035.9,286047001.5,N
1545910055.8,286047004.4,Y
1545910075.6,286047000.1,P
1545910095.4,286047000.3,N
1545910115.3,286047002.3,N
1545910135.1,286046999.7,N
1545910155.9,286047001.0,N
1545910175.7,286047002.7,N
1545910195.5,286047000.0,N
1545910215.4,286047001.2,N
1545910235.2,286047001.0,N
1545910255.1,286047001.0,N
1545910256.0,286047001.0,N
1545910275.8,286047000.2,N
1545910295.6,286047001.1,N
1545910315.5,286047000.8,N
1545910335.3,286047000.7,N
1545910355.1,286047000.2,N
1545910375.9,286046999.7,N
1545910395.7,286046999.7,N
1545910415.6,286046999.8,N
1545910435.4,286047002.5,N
1545910455.2,286047001.9,N
1545910475.1,286047002.2,N
1545910476.0,286047002.2,N
1545910495.8,286047000.3,N
1545910515.6,286047000.3,N
1545910535.5,286047000.1,N
1545910555.3,286047000.6,N
1545910575.2,286046998.3,N
1545910595.9,286047001.1,N
1545910615.7,286047000.9,N
1545910635.6,286046998.1,N
1545910655.4,286047000.6,N
1545910675.3,286047001.0,N
1545910695.1,286046998.6,N
1545910696.0,286046998.6,N
1545910715.8,286047000.8,N
1545910735.7,286047000.8,N
1545910755.5,286047000.8,N
1545910775.3,286046999.4,N
1545910795.2,286046998.6,N
1545910815.0,286046998.3,N
1545910815.9,286046998.3,N
1545910835.8,286046998.3,N
1545910855.6,286046999.0,N
1545910875.4,286047001.2,N
1545910895.3,286047000.7,N
1545910915.1,286046998.8,N
1545910935.8,286046999.3,N
1545910955.7,286046999.3,N
1545910975.5,286046998.6,N
1545910995.4,286046998.2,N
1545911015.2,286046998.5,N
1545911035.0,286046999.9,N
1545911035.9,286046999.9,N
1545911055.8,286046999.9,N
1545911075.6,286047002.3,N
1545911095.5,286047002.7,N
1545911115.3,286047002.3,N
1545911135.1,286047002.3,N
1545911155.9,286046999.8,N
1545911175.7,286047002.4,N
1545911195.5,286047001.1,N
1545911215.4,286046998.4,N
1545911235.2,286046998.7,N
1545911255.1,286046996.5,N
1545911256.0,286046996.5,N
1545911275.8,286046997.2,N
1545911295.6,286046996.5,N
1545911315.5,286046999.2,N
1545911335.3,286046998.5,N
1545911355.1,286046999.3,N
1545911375.9,286046998.7,N
1545911395.7,286046999.2,N
1545911415.6,286046996.5,N
1545911435.4,286046998.6,N
1545911455.2,286046998.5,N
1545911475.1,286046998.4,N
1545911476.0,286046998.4,N
1545911495.8,286046999.4,N
1545911515.7,286046999.3,N
1545911535.5,286046999.2,N
1545911555.3,286046998.6,N
1545911575.2,286046999.2,N
1545911595.0,286046999.1,N
1545911595.9,286046999.1,N
1545911615.7,286046999.2,N
1545911635.6,286046998.3,N
1545911655.4,286046998.3,N
1545911675.3,286046998.3,N
1545911695.1,286047001.1,N
1545911696.0,286047001.1,N
1545911715.8,286047001.0,N
1545911735.7,286047002.7,N
1545911755.5,286047000.3,N
1545911775.4,286046998.4,N
1545911795.2,286046998.9,N
1545911815.0,286047001.2,N
1545911815.9,286047001.2,N
1545911835.8,286047003.5,N
1545911855.6,286047005.3,Y
1545911875.4,286047006.7,P
1545911895.3,286047005.2,N
1545911915.1,286047006.0,N
1545911935.9,286047005.5,N
1545911955.7,286047004.1,N
1545911975.5,286047003.5,N
1545911995.4,286047005.6,N
